• In Netherlands
  • List of Countries
  • For 7 days
  • Water Temperature
  • Satellite Maps
  • Weather Map
  • Weather Widgets
  • user-avatar
    Login

    Hourly Weather Assen

    Today, 26 May, Saturday

    Time Temperature Precipitation Wind Pressure Humidity
    00:00 +15°C° 0 mm 5 mps 764 mmHg 90%
    01:00 +14°C° 0 mm 4 mps 764 mmHg 90%
    02:00 +14°C° 0 mm 4 mps 764 mmHg 91%
    03:00 +14°C° 0 mm 4 mps 764 mmHg 91%
    04:00 +14°C° 0 mm 4 mps 765 mmHg 89%
    05:00 +15°C° 0 mm 4 mps 765 mmHg 87%
    06:00 +17°C° 0 mm 4 mps 765 mmHg 85%
    07:00 +18°C° 0 mm 4 mps 765 mmHg 81%
    08:00 +20°C° 0 mm 4 mps 765 mmHg 77%
    09:00 +22°C° 0 mm 4 mps 765 mmHg 73%
    10:00 +23°C° 0 mm 4 mps 765 mmHg 69%
    11:00 +25°C° 0 mm 5 mps 765 mmHg 64%
    12:00 +26°C° 0 mm 5 mps 765 mmHg 60%
    13:00 +26°C° 0.1 mm 5 mps 765 mmHg 60%
    14:00 +26°C° 0.1 mm 5 mps 765 mmHg 61%
    15:00 +26°C° 0.1 mm 5 mps 765 mmHg 61%
    16:00 +25°C° 0.1 mm 5 mps 765 mmHg 66%
    17:00 +23°C° 0.1 mm 5 mps 765 mmHg 71%
    18:00 +22°C° 0.1 mm 5 mps 765 mmHg 75%
    19:00 +21°C° 0 mm 5 mps 765 mmHg 78%
    20:00 +20°C° 0 mm 5 mps 766 mmHg 81%
    21:00 +17°C° 0 mm 5 mps 766 mmHg 84%
    22:00 +16°C° 0 mm 5 mps 766 mmHg 86%
    23:00 +17°C° 0 mm 4 mps 766 mmHg 87%

    Tomorrow, 27 May, Sunday

    Time Temperature Precipitation Wind Pressure Humidity
    00:00 +15°C° 0 mm 4 mps 766 mmHg 89%
    01:00 +15°C° 0 mm 4 mps 766 mmHg 90%
    02:00 +14°C° 0 mm 4 mps 765 mmHg 91%
    03:00 +14°C° 0 mm 4 mps 765 mmHg 92%
    04:00 +14°C° 0 mm 4 mps 765 mmHg 89%
    05:00 +15°C° 0 mm 4 mps 765 mmHg 86%
    06:00 +16°C° 0 mm 5 mps 765 mmHg 83%
    07:00 +19°C° 0 mm 5 mps 765 mmHg 79%
    08:00 +20°C° 0 mm 5 mps 765 mmHg 74%
    09:00 +22°C° 0 mm 5 mps 765 mmHg 70%
    10:00 +23°C° 0 mm 5 mps 764 mmHg 66%
    11:00 +23°C° 0 mm 5 mps 764 mmHg 63%
    12:00 +25°C° 0 mm 5 mps 764 mmHg 60%
    13:00 +25°C° 0 mm 5 mps 763 mmHg 60%
    14:00 +26°C° 0 mm 5 mps 763 mmHg 60%
    15:00 +26°C° 0 mm 5 mps 762 mmHg 60%
    16:00 +25°C° 0 mm 5 mps 762 mmHg 65%
    17:00 +23°C° 0 mm 4 mps 762 mmHg 70%
    18:00 +23°C° 0 mm 4 mps 762 mmHg 75%
    19:00 +21°C° 0 mm 4 mps 762 mmHg 78%
    20:00 +20°C° 0 mm 4 mps 762 mmHg 81%
    21:00 +19°C° 0 mm 4 mps 762 mmHg 85%
    22:00 +18°C° 0.9 mm 4 mps 762 mmHg 88%
    23:00 +18°C° 0.9 mm 3 mps 762 mmHg 90%

    Day after tomorrow, 28 May, Monday

    Time Temperature Precipitation Wind Pressure Humidity
    00:00 +18°C° 0.9 mm 2 mps 762 mmHg 93%
    01:00 +18°C° 0.3 mm 2 mps 762 mmHg 93%
    02:00 +18°C° 0.3 mm 2 mps 762 mmHg 93%
    03:00 +18°C° 0.3 mm 2 mps 762 mmHg 93%
    04:00 +18°C° 0.1 mm 3 mps 762 mmHg 92%
    05:00 +19°C° 0.1 mm 3 mps 762 mmHg 90%
    06:00 +20°C° 0.1 mm 3 mps 762 mmHg 88%
    07:00 +21°C° 0.1 mm 3 mps 762 mmHg 83%
    08:00 +24°C° 0.1 mm 2 mps 762 mmHg 77%
    09:00 +26°C° 0.1 mm 2 mps 762 mmHg 71%
    10:00 +27°C° 0.6 mm 2 mps 762 mmHg 67%
    11:00 +28°C° 0.6 mm 2 mps 762 mmHg 62%
    12:00 +29°C° 0.6 mm 2 mps 762 mmHg 57%
    13:00 +29°C° 0.1 mm 2 mps 762 mmHg 58%
    14:00 +29°C° 0.1 mm 2 mps 762 mmHg 58%
    15:00 +29°C° 0.1 mm 2 mps 762 mmHg 59%
    16:00 +28°C° 0.4 mm 3 mps 762 mmHg 66%
    17:00 +26°C° 0.4 mm 4 mps 762 mmHg 73%
    18:00 +25°C° 0.4 mm 4 mps 762 mmHg 80%
    19:00 +22°C° 0.4 mm 4 mps 762 mmHg 83%
    20:00 +21°C° 0.4 mm 4 mps 762 mmHg 87%
    21:00 +19°C° 0.4 mm 4 mps 762 mmHg 90%
    22:00 +19°C° 0.4 mm 4 mps 762 mmHg 90%
    23:00 +19°C° 0.4 mm 3 mps 762 mmHg 90%

    29 May, Tuesday

    Time Temperature Precipitation Wind Pressure Humidity
    00:00 +19°C° 0.4 mm 3 mps 762 mmHg 90%
    01:00 +18°C° 0.1 mm 3 mps 762 mmHg 91%
    02:00 +18°C° 0.1 mm 3 mps 762 mmHg 91%
    03:00 +18°C° 0.1 mm 3 mps 762 mmHg 91%
    04:00 +19°C° 0 mm 3 mps 762 mmHg 90%
    05:00 +20°C° 0 mm 3 mps 761 mmHg 88%
    06:00 +21°C° 0 mm 3 mps 761 mmHg 87%
    07:00 +22°C° 0 mm 3 mps 761 mmHg 82%
    08:00 +25°C° 0 mm 3 mps 761 mmHg 76%
    09:00 +27°C° 0 mm 3 mps 761 mmHg 71%
    10:00 +28°C° 0.2 mm 3 mps 761 mmHg 68%
    11:00 +28°C° 0.2 mm 4 mps 760 mmHg 65%
    12:00 +29°C° 0.2 mm 4 mps 760 mmHg 62%
    13:00 +29°C° 0.6 mm 4 mps 760 mmHg 64%
    14:00 +29°C° 0.6 mm 4 mps 759 mmHg 66%
    15:00 +28°C° 0.6 mm 4 mps 759 mmHg 67%
    16:00 +27°C° 0.5 mm 4 mps 759 mmHg 73%
    17:00 +26°C° 0.5 mm 4 mps 758 mmHg 78%
    18:00 +25°C° 0.5 mm 4 mps 758 mmHg 83%
    19:00 +23°C° 0 mm 4 mps 758 mmHg 85%
    20:00 +22°C° 0 mm 4 mps 758 mmHg 87%
    21:00 +21°C° 0 mm 4 mps 758 mmHg 89%
    22:00 +20°C° 0.1 mm 4 mps 758 mmHg 90%
    23:00 +19°C° 0.1 mm 4 mps 758 mmHg 90%

    30 May, Wednesday

    Time Temperature Precipitation Wind Pressure Humidity
    00:00 +19°C° 0.1 mm 4 mps 758 mmHg 91%
    01:00 +18°C° 0 mm 4 mps 757 mmHg 92%
    02:00 +18°C° 0 mm 4 mps 757 mmHg 93%
    03:00 +17°C° 0 mm 3 mps 756 mmHg 93%
    04:00 +17°C° 0.1 mm 4 mps 756 mmHg 91%
    05:00 +18°C° 0.1 mm 4 mps 756 mmHg 89%
    06:00 +18°C° 0.1 mm 4 mps 756 mmHg 86%
    07:00 +20°C° 0.1 mm 4 mps 756 mmHg 83%
    08:00 +21°C° 0.1 mm 4 mps 756 mmHg 79%
    09:00 +22°C° 0.1 mm 4 mps 756 mmHg 76%
    10:00 +23°C° 0.2 mm 4 mps 756 mmHg 75%
    11:00 +25°C° 0.2 mm 4 mps 756 mmHg 73%
    12:00 +26°C° 0.2 mm 3 mps 756 mmHg 72%
    13:00 +25°C° 1.3 mm 3 mps 756 mmHg 76%
    14:00 +25°C° 1.3 mm 3 mps 756 mmHg 80%
    15:00 +25°C° 1.3 mm 3 mps 755 mmHg 84%
    16:00 +24°C° 0.4 mm 3 mps 755 mmHg 85%
    17:00 +24°C° 0.4 mm 3 mps 755 mmHg 87%
    18:00 +22°C° 0.4 mm 3 mps 755 mmHg 89%
    19:00 +21°C° 0.1 mm 2 mps 755 mmHg 90%
    20:00 +21°C° 0.1 mm 2 mps 756 mmHg 91%
    21:00 +20°C° 0.1 mm 2 mps 756 mmHg 93%
    22:00 +19°C° 0 mm 2 mps 756 mmHg 93%
    23:00 +19°C° 0 mm 2 mps 756 mmHg 94%

    31 May, Thursday

    Time Temperature Precipitation Wind Pressure Humidity
    00:00 +19°C° 0 mm 2 mps 756 mmHg 94%
    01:00 +18°C° 0 mm 2 mps 756 mmHg 94%
    02:00 +19°C° 0 mm 1 mps 756 mmHg 95%
    03:00 +19°C° 0 mm 1 mps 757 mmHg 95%
    04:00 +20°C° 0 mm 1 mps 757 mmHg 94%
    05:00 +20°C° 0 mm 1 mps 757 mmHg 92%
    06:00 +21°C° 0 mm 1 mps 757 mmHg 90%
    07:00 +23°C° 0 mm 1 mps 758 mmHg 85%
    08:00 +24°C° 0 mm 1 mps 758 mmHg 81%
    09:00 +25°C° 0 mm 2 mps 758 mmHg 76%
    10:00 +26°C° 0.1 mm 2 mps 758 mmHg 73%
    11:00 +26°C° 0.1 mm 2 mps 758 mmHg 71%
    12:00 +27°C° 0.1 mm 3 mps 758 mmHg 69%
    13:00 +27°C° 0.4 mm 3 mps 758 mmHg 70%
    14:00 +26°C° 0.4 mm 3 mps 758 mmHg 72%
    15:00 +26°C° 0.4 mm 4 mps 758 mmHg 74%
    16:00 +25°C° 0.2 mm 4 mps 758 mmHg 77%
    17:00 +25°C° 0.2 mm 3 mps 759 mmHg 81%
    18:00 +24°C° 0.2 mm 3 mps 759 mmHg 84%
    19:00 +22°C° 0.1 mm 3 mps 759 mmHg 87%
    20:00 +21°C° 0.1 mm 3 mps 759 mmHg 91%
    21:00 +19°C° 0.1 mm 3 mps 760 mmHg 94%
    22:00 +19°C° 0.2 mm 3 mps 760 mmHg 93%
    23:00 +18°C° 0.2 mm 4 mps 760 mmHg 92%
    Show more